9P/Tempel 1 (2022)

Japanese version
Home page
Updated on March 7, 2023

---------------------------------------------------------------------

* Profile

* Pictures

* Orbital Elements

Epoch 2022 Aug. 9.0 TT = JDT 2459800.5
T 2022 Mar. 4.97883 TT                                  Rudenko
q   1.5443431            (2000.0)            P               Q
n   0.17657183     Peri.  179.37152     -0.37311483     +0.91220523
a   3.1466983      Node    68.71013     -0.85201714     -0.26465917
e   0.5092179      Incl.   10.46962     -0.36722217     -0.31278928
P   5.58
>From 2289 observations 2015 Nov. 11-2022 Nov. 2, mean residual 0".5.
     Nongravitational parameters A1 = -0.08, A2 = +0.0035.

* Finding Charts

* Magnitudes Graph

        m1 = 14.0 + 5 log d +  7.5 log r          [    ,-635]  (             - 2020 June  7)
        m1 =  7.5 + 5 log d + 18.0 log r(t + 15)  [-635, 310]  (2020 June  7 - 2023 Jan.  8)
        m1 = 11.5 + 5 log d + 10.0 log r          [ 310,    ]  (2023 Jan.  8 -             )

---------------------------------------------------------------------

The orbital elements are published on M.P.E.C. 2022-V95.
The charts are made with StellaNavigator Ver.10 (AstroArts).
The magnitudes graphs are made with Comet for Windows.

---------------------------------------------------------------------

Copyright(C) Seiichi Yoshida (comet@aerith.net). All rights reserved.